Regional Weather Roundup
Issued by NWS

Home | Current Version | Previous Version | Graphics & Text | Print | Product List | Glossary On
Versions: 1 2 3 4 5 6 7 8 9 10 11 12 13 14 15 16 17 18 19 20 21 22 23 24 25 26 27 28 29 30 31 32 33 34 35 36 37 38 39 40 41 42 43 44 45 46 47 48 49 50
755
ASUS44 KLIX 261710
RWRLA
LOUISIANA WEATHER ROUNDUP
NATIONAL WEATHER SERVICE NEW ORLEANS LA
1100 AM CST WED NOV 26 2014

NOTE: "FAIR" INDICATES FEW OR NO CLOUDS BELOW 12,000 FEET WITH NO
      SIGNIFICANT WEATHER AND/OR OBSTRUCTIONS TO VISIBILITY.
      SKY/WX - SKY CONDITION AND SIGNIFICANT WEATHER.
      TMP - AIR TEMPERATURE.    DP   - DEWPOINT TEMPERATURE.
      RH  - RELATIVE HUMIDITY.  PRES - PRESSURE.
      HX  - HEAT INDEX.         WCI  - WIND CHILL INDEX.

*  THESE STATIONS ARE NOT NWS OR FAA STATIONS AND ARE NOT UNDER
   NWS QUALITY CONTROL.

LAZ040-048-061>063-065-066-069-261800-
SOUTHEAST LOUISIANA

CITY           SKY/WX    TMP DP  RH WIND       PRES   REMARKS
N.O. AUDUBON     N/A     64  36  35 MISG        N/A
N.O. INTL ARPT SUNNY     59  35  40 S8        30.26F
N.O. LAKEFRONT SUNNY     57  36  45 NE5       30.27F
N.O. DOWNTOWN* FAIR      59  32  36 S6        30.28F
SLIDELL        SUNNY     58  31  35 S7        30.26F
BATON ROUGE    SUNNY     62  41  46 SW12      30.23F
BOOTHVILLE     SUNNY     58  35  42 VRB3      30.30F
BELLE CHASSE   SUNNY     61  30  31 S6        30.27F
BOGALUSA*        N/A     59  28  31 SW6       30.25F
NEW ROADS*     FAIR      62  42  48 S9        30.23F
GONZALES*      FAIR      62  39  43 S8        30.24F
HAMMOND*       SUNNY     61  34  36 S10       30.26F
HOUMA*         NOT AVBL
PORT FOURCHON* SUNNY     61  30  31 SW7       30.31F

$$

LAZ041-044-053-054-261800-
SOUTHWEST LOUISIANA

CITY           SKY/WX    TMP DP  RH WIND       PRES   REMARKS
LAKE CHARLES   SUNNY     66  46  48 SW15G23   30.23S
LAFAYETTE      SUNNY     66  42  41 SW18      30.24F
PATTERSON      SUNNY     64  45  48 S12         N/A
SALT POINT       N/A     67  48  50 VRB6      30.25F
NEW IBERIA     SUNNY     67  42  40 SW14      30.25F
CHENAULT AIRPK SUNNY     66  45  45 SW23G35   30.23S

$$

LAZ027-028-261800-
CENTRAL LOUISIANA

CITY           SKY/WX    TMP DP  RH WIND       PRES   REMARKS
FORT POLK      SUNNY     62  40  44 SW20G29   30.20R
ALEXANDRIA INT SUNNY     63  42  46 SW20G25   30.19R
ALEXANDRIA     SUNNY     66  39  37 W17G30    30.19S

$$

LAZ001-002-261800-
NORTHWEST LOUISIANA

CITY           SKY/WX    TMP DP  RH WIND       PRES   REMARKS
SHREVEPORT     PTSUNNY   61  34  36 SW14G24   30.11F
BARKSDALE AFB  SUNNY     61  30  31 W15G25    30.11F
DTN SHREVEPORT SUNNY     59  32  36 SW15      30.11F

$$

LAZ014-016-261800-
NORTHEAST LOUISIANA

CITY           SKY/WX    TMP DP  RH WIND       PRES   REMARKS
MONROE         SUNNY     61  38  42 SW18G28   30.14S
TALLULAH       SUNNY     58  36  43 SW9G18    30.16F

$$




USA.gov is the U.S. government's official web portal to all federal, state and local government web resources and services.